TimeEDT,TemperatureF,Dew PointF,Humidity,Sea Level PressureIn,VisibilityMPH,Wind Direction,Wind SpeedMPH,Gust SpeedMPH,PrecipitationIn,Events,Conditions,WindDirDegrees,DateUTC
12:00 AM,63.7,56.1,76,30.11,-9999.0,SSW,6.9,-,N/A,,Unknown,210,2012-10-04 04:00:00
1:00 AM,63.0,56.1,78,30.12,-9999.0,SSW,4.6,-,N/A,,Unknown,200,2012-10-04 05:00:00
2:00 AM,62,55,73,30.12,,South,5.8,,,,,180,2012-10-04 06:00:00
2:00 AM,62.2,55.4,78,30.12,-9999.0,South,5.8,-,N/A,,Unknown,180,2012-10-04 06:00:00
3:00 AM,61.7,55.8,81,30.11,-9999.0,SSW,2.3,-,N/A,,Unknown,210,2012-10-04 07:00:00
4:00 AM,58.6,55.0,88,30.10,-9999.0,NNW,1.2,-,N/A,,Unknown,330,2012-10-04 08:00:00
5:00 AM,57.4,54.0,88,30.10,-9999.0,NNW,1.2,-,N/A,,Unknown,330,2012-10-04 09:00:00
6:00 AM,60.1,55.6,85,30.09,-9999.0,West,1.2,-,N/A,,Unknown,270,2012-10-04 10:00:00
7:00 AM,61.5,56.1,82,30.09,-9999.0,SSW,3.5,-,N/A,,Unknown,210,2012-10-04 11:00:00
8:00 AM,63,57,74,30.09,,SSW,8.1,,,,,210,2012-10-04 12:00:00
8:00 AM,63.1,56.8,80,30.09,-9999.0,SSW,8.1,-,N/A,,Unknown,210,2012-10-04 12:00:00
9:00 AM,63.9,56.8,78,30.08,-9999.0,SSW,6.9,-,N/A,,Unknown,200,2012-10-04 13:00:00
10:00 AM,65.8,56.1,71,30.07,-9999.0,SSW,9.2,-,N/A,,Unknown,200,2012-10-04 14:00:00
11:00 AM,68.7,55.4,62,30.06,-9999.0,SSW,10.4,-,N/A,,Unknown,200,2012-10-04 15:00:00
12:00 PM,70.2,54.9,58,30.06,-9999.0,SW,11.5,19.6,N/A,,Unknown,220,2012-10-04 16:00:00
1:00 PM,72.3,53.1,51,30.04,-9999.0,SSW,11.5,-,N/A,,Unknown,210,2012-10-04 17:00:00
2:00 PM,73,50,33,30.01,,SSW,18.4,,,,,200,2012-10-04 18:00:00
2:00 PM,73.2,49.8,44,30.01,-9999.0,SSW,18.4,27.6,N/A,,Unknown,200,2012-10-04 18:00:00
3:00 PM,73.2,50.5,45,29.99,-9999.0,SSW,18.4,25.3,N/A,,Unknown,200,2012-10-04 19:00:00
4:00 PM,72.3,50.5,46,29.99,-9999.0,SSW,16.1,24.2,N/A,,Unknown,210,2012-10-04 20:00:00
5:00 PM,71.1,54.0,55,29.99,-9999.0,SSW,13.8,20.7,N/A,,Unknown,210,2012-10-04 21:00:00
6:00 PM,70.9,54.1,55,30.01,-9999.0,SSW,11.5,-,N/A,,Unknown,210,2012-10-04 22:00:00
7:00 PM,69.6,54.3,58,30.01,-9999.0,SSW,12.7,20.7,N/A,,Unknown,210,2012-10-04 23:00:00
8:00 PM,68,54,50,30.02,,SSW,8.1,,,,,210,2012-10-05 00:00:00
8:00 PM,67.6,53.6,61,30.02,-9999.0,SSW,8.1,-,N/A,,Unknown,210,2012-10-05 00:00:00
9:00 PM,66.0,53.6,64,30.03,-9999.0,SW,9.2,-,N/A,,Unknown,220,2012-10-05 01:00:00
10:00 PM,64.6,53.1,66,30.03,-9999.0,WSW,3.5,-,N/A,,Unknown,240,2012-10-05 02:00:00
11:00 PM,65.3,52.3,63,30.01,-9999.0,South,6.9,-,N/A,,Unknown,190,2012-10-05 03:00:00